"Pseudo-MPEC" for P112ejV

Created 2020 Jun 30 19:07:08 UT using Find_Orb

Click here for an explanation of pseudo-MPECs

 
 Astrometry: 
     P112ejV  C2020 06 21uGj6I-+_G+5;Ly^dd/Astrometry8^^3#Gcagk.1cL!23,Kn-V)IF51
     P112ejV  C2020 06 21\\aFFq8redacted;_/%b0BXq/$clickYug+vTr]%fj6J9r`!saLeF51
     P112ejV  C2020 06 21F[kbk3AwEuL2ZH@R_FsP\wCT]D'xJmx+8aPK(l'gNmGQ4TjZM@$dF51
     P112ejV  C2020 06 21J;b,here:3yl7SI5;s]!0^,Dlw$s=tw[x9D^-W]yON-xkBn_Q?oiF51
     P112ejV  C2020 06 28Lm\IKU@y-wFF6-Ws,`9_m6-eu8*D'07=YsT;VlV(3gsM$gfK#sjxF51
     P112ejV  C2020 06 281tvm_g0r)]LD=\6C8?0Yu^-SKsXNGHXforvK[i6.LsZp7=`4/%yiF51
     P112ejV  C2020 06 28T]P-.#?6JA]r.S;Dagrv7c9wwWPE13usuSl1#4'`RexplanationF51

Station data:
(F51) Pan-STARRS 1, Haleakala  (N20.707235 W156.255910)  US/Hawaii.
   Observers N. Primak, A. Schultz, S. Watters, J. Thiel, T. Goggia. Measurer
   PS1 Science Consortium. 1.8-m Ritchey-Chrétien + CCD.

Orbital elements:  P112ejV
   Perihelion 2020 Jun 22.347439 +/- 3.54 TT =  8:20:18 (JD 2459022.847439)
Epoch 2020 Jun 28.0 TT = JDT 2459028.5   Earth MOID: 0.2319   Ma: 0.0448
M   1.62567638 +/- 0.9              (J2000 ecliptic)          AutoNEOCP
n   0.28759997 +/- 0.0412           Peri.  313.31803 +/- 5.5
a   2.27305608 +/- 0.21             Node   321.86044 +/- 2.4
e   0.4527959 +/- 0.045             Incl.    3.28060 +/- 0.23
P   3.43                   H 23.7   G  0.15   U 10.6  
q 1.24382558 +/- 0.0175    Q 3.30228658 +/- 0.418
From 7 observations 2020 June 21-28; mean residual 0".14
Residuals in arcseconds: 
200621 F51  .04-  .05-    200621 F51  .04+  .11-    200628 F51  .05+  .02+    
200621 F51  .19+  .16-    200628 F51  .03+  .09+    
200621 F51  .19-  .32+    200628 F51  .05+  .15-    

Ephemerides (geocentric):
Date (UTC) HH   RA              Dec         delta   r     elong  mag " sig PA
---- -- -- --  -------------   -----------  ------ ------ -----  --- ---- ---
2020 06 30 19  20 04 07.327   -31 24 06.21  .24262 1.2469 159.6 22.0 10.5 179
2020 06 30 20  20 04 11.312   -31 23 25.85  .24262 1.2469 159.6 22.0 10.7 179
2020 06 30 21  20 04 15.291   -31 22 45.47  .24262 1.2470 159.6 22.0 10.9 179
2020 06 30 22  20 04 19.265   -31 22 05.06  .24262 1.2470 159.6 22.0 11.1 178
2020 06 30 23  20 04 23.232   -31 21 24.63  .24262 1.2470 159.7 22.0 11.3 178
2020 07 01 00  20 04 27.194   -31 20 44.16  .24263 1.2471 159.7 22.0 11.5 178
2020 07 01 01  20 04 31.150   -31 20 03.66  .24263 1.2471 159.7 22.0 11.7 178
2020 07 01 02  20 04 35.101   -31 19 23.14  .24263 1.2471 159.7 22.0 11.9 178
2020 07 01 03  20 04 39.045   -31 18 42.58  .24263 1.2472 159.8 22.0 12.1 177
2020 07 01 04  20 04 42.984   -31 18 02.00  .24264 1.2472 159.8 22.0 12.4 177
2020 07 01 05  20 04 46.917   -31 17 21.39  .24264 1.2472 159.8 22.0 12.6 177
2020 07 01 06  20 04 50.844   -31 16 40.75  .24264 1.2472 159.8 22.0 12.8 177
2020 07 01 07  20 04 54.766   -31 16 00.09  .24264 1.2473 159.9 22.0 13.0 177
2020 07 01 08  20 04 58.682   -31 15 19.39  .24265 1.2473 159.9 22.0 13.2 176
2020 07 01 09  20 05 02.592   -31 14 38.67  .24265 1.2473 159.9 22.0 13.4 176
2020 07 01 10  20 05 06.496   -31 13 57.92  .24266 1.2474 159.9 22.0 13.6 176
2020 07 01 11  20 05 10.394   -31 13 17.14  .24266 1.2474 160.0 22.0 13.9 176
2020 07 01 12  20 05 14.287   -31 12 36.34  .24266 1.2474 160.0 22.0 14.1 176
2020 07 01 13  20 05 18.173   -31 11 55.50  .24267 1.2475 160.0 22.0 14.3 176
2020 07 01 14  20 05 22.054   -31 11 14.64  .24267 1.2475 160.0 22.0 14.5 175
2020 07 01 15  20 05 25.930   -31 10 33.75  .24268 1.2475 160.0 22.0 14.8 175
2020 07 01 16  20 05 29.799   -31 09 52.84  .24268 1.2476 160.1 22.0 15.0 175
2020 07 01 17  20 05 33.663   -31 09 11.90  .24269 1.2476 160.1 22.0 15.2 175
2020 07 01 18  20 05 37.521   -31 08 30.93  .24269 1.2476 160.1 22.0 15.4 175
2020 07 01 19  20 05 41.373   -31 07 49.93  .24270 1.2477 160.1 22.0 15.7 175
2020 07 01 20  20 05 45.219   -31 07 08.91  .24270 1.2477 160.2 22.0 15.9 175
2020 07 01 21  20 05 49.060   -31 06 27.86  .24271 1.2477 160.2 22.0 16.1 174
2020 07 01 22  20 05 52.895   -31 05 46.78  .24271 1.2478 160.2 22.0 16.4 174
2020 07 01 23  20 05 56.724   -31 05 05.68  .24272 1.2478 160.2 22.0 16.6 174
2020 07 02 00  20 06 00.547   -31 04 24.54  .24273 1.2478 160.3 22.0 16.8 174
2020 07 02 01  20 06 04.365   -31 03 43.39  .24273 1.2479 160.3 22.0 17.1 174
2020 07 02 02  20 06 08.177   -31 03 02.21  .24274 1.2479 160.3 22.0 17.3 174
2020 07 02 03  20 06 11.983   -31 02 21.00  .24275 1.2480 160.3 22.0 17.6 174
2020 07 02 04  20 06 15.783   -31 01 39.76  .24275 1.2480 160.4 22.0 17.8 174
2020 07 02 05  20 06 19.578   -31 00 58.50  .24276 1.2480 160.4 22.0 18.1 173
2020 07 02 06  20 06 23.367   -31 00 17.21  .24277 1.2481 160.4 22.0 18.3 173
2020 07 02 07  20 06 27.150   -30 59 35.90  .24278 1.2481 160.4 22.0 18.6 173
2020 07 02 08  20 06 30.927   -30 58 54.56  .24278 1.2481 160.5 22.0 18.8 173
2020 07 02 09  20 06 34.699   -30 58 13.20  .24279 1.2482 160.5 22.0 19.1 173
2020 07 02 10  20 06 38.465   -30 57 31.81  .24280 1.2482 160.5 22.0 19.3 173
2020 07 02 11  20 06 42.225   -30 56 50.39  .24281 1.2482 160.5 22.0 19.6 173
2020 07 02 12  20 06 45.979   -30 56 08.95  .24282 1.2483 160.6 22.0 19.8 173
2020 07 02 13  20 06 49.728   -30 55 27.49  .24282 1.2483 160.6 22.0 20.1 173
2020 07 02 14  20 06 53.470   -30 54 46.00  .24283 1.2483 160.6 22.0 20.3 172
2020 07 02 15  20 06 57.207   -30 54 04.48  .24284 1.2484 160.6 22.0 20.6 172
2020 07 02 16  20 07 00.939   -30 53 22.94  .24285 1.2484 160.7 22.0 20.9 172
2020 07 02 17  20 07 04.664   -30 52 41.37  .24286 1.2485 160.7 22.0 21.1 172
2020 07 02 18  20 07 08.384   -30 51 59.78  .24287 1.2485 160.7 22.0 21.4 172